When you browse on this site, cookies collect data to enhance your experience and personalize the content and advertising you see.
Visit our Privacy Policy to learn more. By continuing to use the site, you agree to this use of cookies and data.
  • Em Portugal
  • Lista de países
  • Para 7 dias
  • Temperatura da água
  • Mapa do tempo
  • Widgets de tempo
  • user-avatar
    Iniciar Sessão

    Previsão horária em Cuilapa

    Hoje, 26 Fevereiro, Quarta-feira

    Tempo Temperatura Precipitação Vento Pressão Humidade
    00:00 +19°C° 0.1 mm 0 m/s 686 mmHg 94%
    01:00 +18°C° 0 mm 0 m/s 685 mmHg 94%
    02:00 +18°C° 0 mm 0 m/s 685 mmHg 94%
    03:00 +20°C° 0 mm 1 m/s 684 mmHg 94%
    04:00 +20°C° 0 mm 1 m/s 684 mmHg 94%
    05:00 +20°C° 0 mm 1 m/s 685 mmHg 94%
    06:00 +19°C° 0 mm 1 m/s 685 mmHg 93%
    07:00 +22°C° 0 mm 1 m/s 686 mmHg 81%
    08:00 +25°C° 0 mm 1 m/s 687 mmHg 68%
    09:00 +26°C° 0 mm 0 m/s 688 mmHg 55%
    10:00 +30°C° 0 mm 1 m/s 688 mmHg 50%
    11:00 +31°C° 0 mm 2 m/s 688 mmHg 45%
    12:00 +33°C° 0 mm 3 m/s 688 mmHg 39%
    13:00 +31°C° 0.1 mm 3 m/s 687 mmHg 44%
    14:00 +30°C° 0.1 mm 3 m/s 687 mmHg 49%
    15:00 +29°C° 0.1 mm 3 m/s 686 mmHg 54%
    16:00 +28°C° 0.3 mm 2 m/s 686 mmHg 63%
    17:00 +26°C° 0.3 mm 2 m/s 686 mmHg 72%
    18:00 +24°C° 0.3 mm 1 m/s 685 mmHg 81%
    19:00 +23°C° 0 mm 1 m/s 686 mmHg 85%
    20:00 +22°C° 0 mm 1 m/s 686 mmHg 88%
    21:00 +22°C° 0 mm 1 m/s 687 mmHg 92%
    22:00 +21°C° 0 mm 1 m/s 687 mmHg 90%
    23:00 +21°C° 0 mm 1 m/s 687 mmHg 88%

    Amanhã, 27 Fevereiro, Quinta-feira

    Tempo Temperatura Precipitação Vento Pressão Humidade
    00:00 +20°C° 0 mm 2 m/s 687 mmHg 86%
    01:00 +20°C° 0 mm 2 m/s 687 mmHg 85%
    02:00 +20°C° 0 mm 2 m/s 686 mmHg 84%
    03:00 +20°C° 0 mm 2 m/s 686 mmHg 84%
    04:00 +20°C° 0 mm 2 m/s 686 mmHg 83%
    05:00 +20°C° 0 mm 2 m/s 687 mmHg 83%
    06:00 +20°C° 0 mm 2 m/s 687 mmHg 82%
    07:00 +22°C° 0 mm 3 m/s 688 mmHg 73%
    08:00 +25°C° 0 mm 3 m/s 689 mmHg 63%
    09:00 +27°C° 0 mm 3 m/s 690 mmHg 53%
    10:00 +28°C° 0 mm 3 m/s 690 mmHg 48%
    11:00 +29°C° 0 mm 3 m/s 690 mmHg 44%
    12:00 +30°C° 0 mm 3 m/s 690 mmHg 39%
    13:00 +30°C° 0 mm 3 m/s 689 mmHg 40%
    14:00 +30°C° 0 mm 3 m/s 689 mmHg 40%
    15:00 +30°C° 0 mm 3 m/s 688 mmHg 41%
    16:00 +28°C° 0 mm 3 m/s 688 mmHg 46%
    17:00 +26°C° 0 mm 3 m/s 688 mmHg 52%
    18:00 +24°C° 0 mm 2 m/s 688 mmHg 58%
    19:00 +22°C° 0 mm 3 m/s 688 mmHg 61%
    20:00 +21°C° 0 mm 3 m/s 688 mmHg 65%
    21:00 +19°C° 0 mm 3 m/s 689 mmHg 69%
    22:00 +19°C° 0 mm 3 m/s 688 mmHg 70%
    23:00 +19°C° 0 mm 3 m/s 688 mmHg 70%

    Depois de amanhã, 28 Fevereiro, Sexta-feira

    Tempo Temperatura Precipitação Vento Pressão Humidade
    00:00 +18°C° 0 mm 4 m/s 688 mmHg 71%
    01:00 +18°C° 0 mm 3 m/s 688 mmHg 71%
    02:00 +18°C° 0 mm 3 m/s 688 mmHg 72%
    03:00 +18°C° 0 mm 3 m/s 687 mmHg 73%
    04:00 +17°C° 0 mm 3 m/s 687 mmHg 73%
    05:00 +17°C° 0 mm 3 m/s 688 mmHg 73%
    06:00 +17°C° 0 mm 3 m/s 688 mmHg 74%
    07:00 +19°C° 0 mm 3 m/s 689 mmHg 66%
    08:00 +22°C° 0 mm 3 m/s 689 mmHg 59%
    09:00 +25°C° 0 mm 3 m/s 690 mmHg 51%
    10:00 +27°C° 0 mm 3 m/s 690 mmHg 46%
    11:00 +30°C° 0 mm 3 m/s 690 mmHg 40%
    12:00 +32°C° 0 mm 2 m/s 691 mmHg 34%
    13:00 +32°C° 0 mm 2 m/s 690 mmHg 34%
    14:00 +32°C° 0 mm 2 m/s 689 mmHg 34%
    15:00 +32°C° 0 mm 2 m/s 689 mmHg 34%
    16:00 +30°C° 0 mm 2 m/s 689 mmHg 40%
    17:00 +28°C° 0 mm 2 m/s 689 mmHg 47%
    18:00 +26°C° 0 mm 2 m/s 689 mmHg 53%
    19:00 +24°C° 0 mm 2 m/s 689 mmHg 59%
    20:00 +22°C° 0 mm 3 m/s 689 mmHg 64%
    21:00 +20°C° 0 mm 3 m/s 690 mmHg 70%
    22:00 +20°C° 0 mm 3 m/s 689 mmHg 71%
    23:00 +20°C° 0 mm 3 m/s 689 mmHg 71%

    29 Fevereiro, Sábado

    Tempo Temperatura Precipitação Vento Pressão Humidade
    00:00 +19°C° 0 mm 4 m/s 689 mmHg 72%
    01:00 +19°C° 0 mm 4 m/s 689 mmHg 72%
    02:00 +19°C° 0 mm 4 m/s 688 mmHg 72%
    03:00 +19°C° 0 mm 4 m/s 688 mmHg 72%
    04:00 +19°C° 0 mm 4 m/s 688 mmHg 72%
    05:00 +19°C° 0 mm 4 m/s 688 mmHg 72%
    06:00 +18°C° 0 mm 4 m/s 688 mmHg 72%
    07:00 +20°C° 0 mm 4 m/s 689 mmHg 64%
    08:00 +22°C° 0 mm 4 m/s 690 mmHg 55%
    09:00 +26°C° 0 mm 4 m/s 691 mmHg 47%
    10:00 +27°C° 0 mm 4 m/s 691 mmHg 43%
    11:00 +29°C° 0 mm 4 m/s 690 mmHg 38%
    12:00 +31°C° 0 mm 3 m/s 690 mmHg 34%
    13:00 +31°C° 0 mm 3 m/s 690 mmHg 34%
    14:00 +31°C° 0 mm 3 m/s 689 mmHg 34%
    15:00 +31°C° 0 mm 3 m/s 689 mmHg 34%
    16:00 +28°C° 0 mm 3 m/s 689 mmHg 42%
    17:00 +26°C° 0 mm 2 m/s 688 mmHg 49%
    18:00 +24°C° 0 mm 2 m/s 688 mmHg 56%
    19:00 +21°C° 0 mm 2 m/s 688 mmHg 62%
    20:00 +20°C° 0 mm 3 m/s 689 mmHg 67%
    21:00 +18°C° 0 mm 3 m/s 689 mmHg 73%
    22:00 +18°C° 0 mm 3 m/s 688 mmHg 73%
    23:00 +17°C° 0 mm 4 m/s 688 mmHg 74%

    1 Março, Domingo

    Tempo Temperatura Precipitação Vento Pressão Humidade
    00:00 +17°C° 0 mm 4 m/s 688 mmHg 74%
    01:00 +17°C° 0 mm 4 m/s 687 mmHg 73%
    02:00 +17°C° 0 mm 4 m/s 687 mmHg 72%
    03:00 +17°C° 0 mm 4 m/s 686 mmHg 72%
    04:00 +16°C° 0 mm 3 m/s 687 mmHg 72%
    05:00 +16°C° 0 mm 3 m/s 687 mmHg 72%
    06:00 +16°C° 0 mm 3 m/s 687 mmHg 72%
    07:00 +19°C° 0 mm 3 m/s 688 mmHg 62%
    08:00 +21°C° 0 mm 2 m/s 689 mmHg 52%
    09:00 +25°C° 0 mm 2 m/s 690 mmHg 42%
    10:00 +28°C° 0 mm 2 m/s 690 mmHg 36%
    11:00 +30°C° 0 mm 2 m/s 690 mmHg 30%
    12:00 +34°C° 0 mm 2 m/s 690 mmHg 24%
    13:00 +34°C° 0 mm 3 m/s 689 mmHg 25%
    14:00 +33°C° 0 mm 3 m/s 688 mmHg 27%
    15:00 +33°C° 0 mm 3 m/s 687 mmHg 29%
    16:00 +29°C° 0 mm 2 m/s 687 mmHg 39%
    17:00 +26°C° 0 mm 2 m/s 686 mmHg 48%
    18:00 +24°C° 0 mm 1 m/s 686 mmHg 58%
    19:00 +23°C° 0 mm 1 m/s 686 mmHg 61%
    20:00 +21°C° 0 mm 1 m/s 686 mmHg 65%
    21:00 +19°C° 0 mm 2 m/s 687 mmHg 68%
    22:00 +19°C° 0 mm 2 m/s 686 mmHg 69%
    23:00 +18°C° 0 mm 2 m/s 686 mmHg 70%

    2 Março, Segunda-feira

    Tempo Temperatura Precipitação Vento Pressão Humidade
    00:00 +18°C° 0 mm 2 m/s 686 mmHg 71%
    01:00 +17°C° 0 mm 2 m/s 686 mmHg 73%
    02:00 +17°C° 0 mm 2 m/s 685 mmHg 74%
    03:00 +17°C° 0 mm 2 m/s 685 mmHg 76%
    04:00 +16°C° 0 mm 2 m/s 685 mmHg 73%
    05:00 +16°C° 0 mm 2 m/s 685 mmHg 71%
    06:00 +16°C° 0 mm 2 m/s 685 mmHg 68%
    07:00 +20°C° 0 mm 2 m/s 686 mmHg 56%
    08:00 +25°C° 0 mm 1 m/s 687 mmHg 44%
    09:00 +28°C° 0 mm 1 m/s 688 mmHg 32%
    10:00 +30°C° 0 mm 1 m/s 688 mmHg 29%
    11:00 +32°C° 0 mm 2 m/s 688 mmHg 25%
    12:00 +34°C° 0 mm 2 m/s 688 mmHg 21%
    13:00 +34°C° 0 mm 3 m/s 687 mmHg 23%
    14:00 +33°C° 0 mm 3 m/s 686 mmHg 25%
    15:00 +33°C° 0 mm 3 m/s 686 mmHg 28%
    16:00 +29°C° 0 mm 2 m/s 685 mmHg 39%
    17:00 +27°C° 0 mm 2 m/s 685 mmHg 50%
    18:00 +24°C° 0 mm 1 m/s 685 mmHg 62%
    19:00 +23°C° 0 mm 1 m/s 685 mmHg 68%
    20:00 +21°C° 0 mm 1 m/s 685 mmHg 74%
    21:00 +20°C° 0 mm 1 m/s 685 mmHg 80%
    22:00 +20°C° 0 mm 1 m/s 685 mmHg 76%
    23:00 +20°C° 0 mm 1 m/s 685 mmHg 72%
    Mostrar mais